Madison, SD

11:20 AM CST on December 05, 2019 (GMT -0600)
Madison Municipal

Weather History for KMDS - October, 2019

Change the Weather History Date:

Saturday, October 5, 2019

  Actual Average Record
Temperature  
Mean Temperature 50 °F -  
Max Temperature 55 °F 64 °F 82 °F (2011)
Min Temperature 46 °F 40 °F 35 °F (2018)
Degree Days  
Heating Degree Days 14    
Moisture  
Dew Point 47 °F    
Average Humidity 90    
Maximum Humidity 100    
Minimum Humidity 67    
Precipitation  
Precipitation 0.15 in - - ()
Sea Level Pressure  
Sea Level Pressure 29.84 in    
Wind  
Wind Speed 15 mph ()    
Max Wind Speed 32 mph    
Max Gust Speed 47 mph    
Visibility 9.0 miles    
Events Rain , Thunderstorm    
Averages and records for this station are not official NWS values.
T = Trace of Precipitation, MM = Missing Value Source: Averaged Metar Reports

Daily Weather History Graph

Daily Weather History Graph

Search for Another Location

Airport or City:

Astronomy

Oct. 05, 2019 Rise Set
Actual Time 7:30 AM CDT 7:02 PM CDT
Civil Twilight 7:01 AM CDT 7:31 PM CDT
Nautical Twilight 6:28 AM CDT 8:04 PM CDT
Astronomical Twilight 5:54 AM CDT 8:38 PM CDT
Moon 3:08 PM CDT No Moon Set
Length of Visible Light 12h 29m
Length of Day
11h 31m
Waxing Crescent, 50% of the Moon is Illuminated
Oct 5
Waxing Crescent
Oct 13
Full
Oct 21
Last Quarter
Oct 27
New
Nov 4
First Quarter

Hourly Weather History & Observations

Time (CDT) Temp. Windchill Dew Point Humidity Pressure Visibility Wind Dir Wind Speed Gust Speed Precip Events Conditions
12:00 AM 48.2 °F - 48.2 °F 100% 29.94 in 10.0 mi SSE 18.4 mph 26.5 mph N/A   Overcast
12:15 AM 48.2 °F - 48.2 °F 100% 29.93 in 10.0 mi SSE 18.4 mph 23.0 mph N/A   Overcast
12:35 AM 48.2 °F - 48.2 °F 100% 29.92 in 10.0 mi SE 19.6 mph 26.5 mph N/A   Overcast
12:55 AM 48.2 °F - 48.2 °F 100% 29.92 in 10.0 mi SSE 19.6 mph 27.6 mph N/A Thunderstorm Overcast
1:15 AM 48.2 °F - 48.2 °F 100% 29.91 in 10.0 mi SSE 19.6 mph 29.9 mph N/A Rain Light Rain
1:35 AM 48.2 °F - 48.2 °F 100% 29.90 in 10.0 mi SSE 15.0 mph 23.0 mph N/A   Overcast
1:40 AM 48.2 °F - 48.2 °F 100% 29.89 in 10.0 mi SSE 15.0 mph 20.7 mph N/A   Overcast
1:55 AM 48.2 °F - 48.2 °F 100% 29.89 in 10.0 mi South 17.3 mph 23.0 mph N/A   Overcast
2:00 AM 48.2 °F - 48.2 °F 100% 29.89 in 6.0 mi SSE 13.8 mph 23.0 mph N/A   Overcast
2:15 AM 48.2 °F - 48.2 °F 100% 29.93 in 2.0 mi SW 13.8 mph 23.0 mph N/A Rain Light Rain
2:35 AM 46.4 °F 40.7 °F 46.4 °F 100% 29.93 in 2.5 mi SSW 12.7 mph 20.7 mph 0.13 in Rain Light Rain
2:40 AM 46.4 °F 40.4 °F 46.4 °F 100% 29.93 in 3.0 mi SSW 13.8 mph - 0.14 in Rain Rain
2:55 AM 46.4 °F 41.5 °F 46.4 °F 100% 29.91 in 6.0 mi South 10.4 mph 16.1 mph 0.15 in Thunderstorm Overcast
3:15 AM 46.4 °F 40.7 °F 46.4 °F 100% 29.87 in 10.0 mi SSE 12.7 mph 18.4 mph N/A   Overcast
3:20 AM 46.4 °F 41.1 °F 46.4 °F 100% 29.87 in 10.0 mi SSE 11.5 mph 18.4 mph N/A   Overcast
3:35 AM 46.4 °F 40.7 °F 46.4 °F 100% 29.85 in 10.0 mi SSE 12.7 mph 17.3 mph N/A   Overcast
3:55 AM 46.4 °F 41.5 °F 46.4 °F 100% 29.84 in 10.0 mi SSE 10.4 mph 19.6 mph N/A   Overcast
4:00 AM 46.4 °F 41.1 °F 46.4 °F 100% 29.83 in 10.0 mi SSE 11.5 mph 18.4 mph N/A   Overcast
4:15 AM 46.4 °F 40.4 °F 46.4 °F 100% 29.82 in 10.0 mi SSE 13.8 mph - N/A   Overcast
4:35 AM 48.2 °F - 48.2 °F 100% 29.82 in 10.0 mi SSE 13.8 mph 18.4 mph N/A   Overcast
4:40 AM 48.2 °F - 48.2 °F 100% 29.82 in 10.0 mi SSE 12.7 mph 20.7 mph N/A   Overcast
4:55 AM 48.2 °F - 48.2 °F 100% 29.81 in 10.0 mi South 16.1 mph - N/A   Overcast
5:00 AM 48.2 °F - 48.2 °F 100% 29.80 in 10.0 mi South 16.1 mph - N/A   Overcast
5:15 AM 48.2 °F - 48.2 °F 100% 29.81 in 10.0 mi South 13.8 mph 20.7 mph N/A   Overcast
5:35 AM 48.2 °F - 48.2 °F 100% 29.80 in 10.0 mi SSE 13.8 mph 19.6 mph N/A   Overcast
5:55 AM 48.2 °F - 48.2 °F 100% 29.79 in 10.0 mi SSE 11.5 mph 16.1 mph N/A   Overcast
6:00 AM 48.2 °F - 48.2 °F 100% 29.79 in 10.0 mi South 9.2 mph 16.1 mph N/A   Overcast
6:15 AM 48.2 °F - 48.2 °F 100% 29.78 in 10.0 mi SSE 9.2 mph - N/A   Overcast
6:35 AM 48.2 °F - 48.2 °F 100% 29.77 in 10.0 mi South 12.7 mph - N/A   Overcast
6:40 AM 48.2 °F - 48.2 °F 100% 29.77 in 10.0 mi SSE 11.5 mph - N/A   Overcast
6:55 AM 48.2 °F - 48.2 °F 100% 29.76 in 10.0 mi SSE 11.5 mph - N/A   Overcast
7:15 AM 48.2 °F - 48.2 °F 100% 29.76 in 6.0 mi South 11.5 mph 19.6 mph N/A   Overcast
7:35 AM 48.2 °F - 48.2 °F 100% 29.76 in 3.0 mi South 16.1 mph 20.7 mph N/A   Overcast
7:55 AM 48.2 °F - 48.2 °F 100% 29.76 in 2.0 mi South 12.7 mph - N/A   Overcast
8:00 AM 48.2 °F - 48.2 °F 100% 29.76 in 2.0 mi South 13.8 mph - N/A   Overcast
8:15 AM 48.2 °F - 48.2 °F 100% 29.76 in 2.5 mi South 15.0 mph 19.6 mph N/A   Overcast
8:35 AM 48.2 °F - 48.2 °F 100% 29.75 in 2.0 mi South 11.5 mph - N/A Rain Light Rain
8:40 AM 50.0 °F - 50.0 °F 100% 29.75 in 3.0 mi South 11.5 mph - N/A Rain Light Rain
8:55 AM 50.0 °F - 50.0 °F 100% 29.75 in 2.5 mi South 11.5 mph - N/A   Overcast
9:35 AM 50.0 °F - 50.0 °F 100% 29.74 in 2.0 mi SW 10.4 mph - N/A   Overcast
9:40 AM 50.0 °F - 50.0 °F 100% 29.74 in 2.0 mi SW 11.5 mph - N/A   Overcast
9:55 AM 50.0 °F - 50.0 °F 100% 29.75 in 10.0 mi WSW 11.5 mph - N/A   Mostly Cloudy
10:00 AM 50.0 °F - 50.0 °F 100% 29.75 in 8.0 mi WSW 12.7 mph 17.3 mph N/A   Scattered Clouds
10:15 AM 51.8 °F - 51.8 °F 100% 29.74 in 10.0 mi WSW 12.7 mph 18.4 mph N/A   Scattered Clouds
10:20 AM 51.8 °F - 51.8 °F 100% 29.74 in 10.0 mi WSW 11.5 mph - N/A   Mostly Cloudy
10:35 AM 53.6 °F - 53.6 °F 100% 29.75 in 10.0 mi WSW 15.0 mph 23.0 mph N/A   Mostly Cloudy
10:40 AM 53.6 °F - 53.6 °F 100% 29.75 in 10.0 mi WSW 11.5 mph 23.0 mph N/A   Overcast
10:55 AM 53.6 °F - 53.6 °F 100% 29.75 in 10.0 mi West 16.1 mph 21.9 mph N/A   Overcast
11:00 AM 53.6 °F - 53.6 °F 100% 29.75 in 10.0 mi West 18.4 mph 27.6 mph N/A   Overcast
11:15 AM 51.8 °F - 51.8 °F 100% 29.76 in 10.0 mi West 18.4 mph 33.4 mph N/A   Overcast
11:35 AM 50.0 °F - 50.0 °F 100% 29.77 in 10.0 mi West 21.9 mph 29.9 mph N/A   Overcast
11:55 AM 50.0 °F - 50.0 °F 100% 29.78 in 10.0 mi West 17.3 mph 27.6 mph N/A   Overcast
12:00 PM 50.0 °F - 50.0 °F 100% 29.78 in 10.0 mi West 19.6 mph 27.6 mph N/A   Overcast
12:15 PM 50.0 °F - 50.0 °F 100% 29.78 in 10.0 mi West 20.7 mph 27.6 mph N/A   Overcast
12:20 PM 50.0 °F - 50.0 °F 100% 29.78 in 10.0 mi West 19.6 mph 28.8 mph N/A   Overcast
12:35 PM 50.0 °F - 50.0 °F 100% 29.78 in 10.0 mi West 17.3 mph 27.6 mph N/A   Overcast
12:40 PM 50.0 °F - 50.0 °F 100% 29.78 in 10.0 mi West 19.6 mph 31.1 mph N/A   Overcast
12:55 PM 50.0 °F - 50.0 °F 100% 29.78 in 10.0 mi West 21.9 mph 32.2 mph N/A   Overcast
1:00 PM 50.0 °F - 50.0 °F 100% 29.78 in 10.0 mi West 21.9 mph 35.7 mph N/A   Overcast
1:15 PM 50.0 °F - 46.4 °F 87% 29.78 in 10.0 mi WNW 24.2 mph 32.2 mph N/A   Overcast
1:35 PM 51.8 °F - 46.4 °F 82% 29.78 in 10.0 mi West 26.5 mph 38.0 mph N/A   Overcast
1:40 PM 51.8 °F - 46.4 °F 82% 29.78 in 10.0 mi West 26.5 mph 38.0 mph N/A   Overcast
1:55 PM 51.8 °F - 46.4 °F 82% 29.78 in 10.0 mi West 23.0 mph 39.1 mph N/A   Overcast
2:00 PM 51.8 °F - 46.4 °F 82% 29.78 in 10.0 mi WNW 21.9 mph 39.1 mph N/A   Overcast
2:15 PM 51.8 °F - 46.4 °F 82% 29.79 in 10.0 mi West 26.5 mph 40.3 mph N/A   Overcast
2:35 PM 51.8 °F - 46.4 °F 82% 29.79 in 10.0 mi WNW 21.9 mph 33.4 mph N/A   Overcast
2:40 PM 51.8 °F - 46.4 °F 82% 29.79 in 10.0 mi WNW 21.9 mph 33.4 mph N/A   Overcast
2:55 PM 53.6 °F - 46.4 °F 77% 29.79 in 10.0 mi WNW 21.9 mph 38.0 mph N/A   Overcast
3:00 PM 53.6 °F - 46.4 °F 77% 29.79 in 10.0 mi WNW 29.9 mph 38.0 mph N/A   Overcast
3:15 PM 53.6 °F - 46.4 °F 77% 29.80 in 10.0 mi WNW 28.8 mph 38.0 mph N/A   Overcast
3:20 PM 53.6 °F - 46.4 °F 77% 29.80 in 10.0 mi WNW 31.1 mph 47.2 mph N/A   Overcast
3:35 PM 55.4 °F - 46.4 °F 72% 29.80 in 10.0 mi WNW 32.2 mph 44.9 mph N/A   Overcast
3:40 PM 55.4 °F - 44.6 °F 67% 29.80 in 10.0 mi WNW 31.1 mph 44.9 mph N/A   Mostly Cloudy
3:55 PM 55.4 °F - 46.4 °F 72% 29.81 in 10.0 mi WNW 31.1 mph 43.7 mph N/A   Mostly Cloudy
4:15 PM 55.4 °F - 46.4 °F 72% 29.82 in 10.0 mi WNW 27.6 mph 32.2 mph N/A   Overcast
4:35 PM 55.4 °F - 44.6 °F 67% 29.83 in 10.0 mi WNW 24.2 mph 41.4 mph N/A   Overcast
4:40 PM 55.4 °F - 44.6 °F 67% 29.83 in 10.0 mi WNW 24.2 mph 33.4 mph N/A   Overcast
4:55 PM 55.4 °F - 44.6 °F 67% 29.84 in 10.0 mi WNW 23.0 mph 35.7 mph N/A   Mostly Cloudy
5:00 PM 55.4 °F - 44.6 °F 67% 29.84 in 10.0 mi WNW 24.2 mph 35.7 mph N/A   Mostly Cloudy
5:15 PM 55.4 °F - 44.6 °F 67% 29.85 in 10.0 mi NW 26.5 mph 41.4 mph N/A   Partly Cloudy
5:20 PM 55.4 °F - 44.6 °F 67% 29.85 in 10.0 mi WNW 25.3 mph 41.4 mph N/A   Partly Cloudy
5:35 PM 55.4 °F - 44.6 °F 67% 29.86 in 10.0 mi WNW 23.0 mph 32.2 mph N/A   Clear
5:40 PM 55.4 °F - 44.6 °F 67% 29.85 in 10.0 mi WNW 24.2 mph 34.5 mph N/A   Clear
5:55 PM 55.4 °F - 44.6 °F 67% 29.86 in 10.0 mi WNW 20.7 mph 32.2 mph N/A   Clear
6:15 PM 53.6 °F - 44.6 °F 72% 29.86 in 10.0 mi WNW 13.8 mph 29.9 mph N/A   Clear
6:35 PM 53.6 °F - 46.4 °F 77% 29.87 in 10.0 mi WNW 9.2 mph - N/A   Clear
6:40 PM 53.6 °F - 46.4 °F 77% 29.87 in 10.0 mi WNW 10.4 mph - N/A   Clear
6:55 PM 51.8 °F - 46.4 °F 82% 29.88 in 10.0 mi WNW 11.5 mph - N/A   Clear
7:15 PM 50.0 °F - 46.4 °F 87% 29.89 in 10.0 mi WNW 8.1 mph - N/A   Clear
7:35 PM 50.0 °F - 46.4 °F 87% 29.89 in 10.0 mi WNW 8.1 mph - N/A   Clear
7:55 PM 50.0 °F - 46.4 °F 87% 29.90 in 10.0 mi West 8.1 mph - N/A   Clear
8:15 PM 50.0 °F - 46.4 °F 87% 29.90 in 10.0 mi WNW 12.7 mph 17.3 mph N/A   Clear
8:20 PM 50.0 °F - 44.6 °F 82% 29.91 in 10.0 mi WNW 12.7 mph 17.3 mph N/A   Clear
8:35 PM 50.0 °F - 44.6 °F 82% 29.91 in 10.0 mi WNW 11.5 mph - N/A   Clear
8:40 PM 50.0 °F - 44.6 °F 82% 29.91 in 10.0 mi West 11.5 mph - N/A   Clear
8:55 PM 50.0 °F - 44.6 °F 82% 29.92 in 10.0 mi West 11.5 mph - N/A   Clear
9:15 PM 50.0 °F - 44.6 °F 82% 29.93 in 10.0 mi West 11.5 mph 17.3 mph N/A   Clear
9:20 PM 50.0 °F - 44.6 °F 82% 29.93 in 10.0 mi West 12.7 mph 17.3 mph N/A   Clear
9:35 PM 50.0 °F - 44.6 °F 82% 29.93 in 10.0 mi West 11.5 mph 17.3 mph N/A   Clear
9:40 PM 50.0 °F - 44.6 °F 82% 29.93 in 10.0 mi West 12.7 mph - N/A   Clear
9:55 PM 48.2 °F - 42.8 °F 82% 29.93 in 10.0 mi WNW 10.4 mph - N/A   Clear
10:15 PM 48.2 °F - 42.8 °F 82% 29.94 in 10.0 mi West 8.1 mph - N/A   Clear
10:20 PM 48.2 °F - 44.6 °F 87% 29.94 in 10.0 mi West 8.1 mph - N/A   Clear
10:35 PM 46.4 °F 42.4 °F 44.6 °F 93% 29.94 in 10.0 mi West 8.1 mph - N/A   Clear
10:40 PM 46.4 °F 42.9 °F 44.6 °F 93% 29.94 in 10.0 mi West 6.9 mph - N/A   Clear
10:55 PM 46.4 °F 41.9 °F 44.6 °F 93% 29.95 in 10.0 mi West 9.2 mph - N/A   Clear
11:15 PM 48.2 °F - 42.8 °F 82% 29.95 in 10.0 mi West 8.1 mph - N/A   Clear
11:20 PM 46.4 °F 41.9 °F 42.8 °F 87% 29.96 in 10.0 mi West 9.2 mph - N/A   Clear
11:35 PM 48.2 °F - 41.0 °F 76% 29.95 in 10.0 mi West 9.2 mph - N/A   Clear
11:40 PM 48.2 °F - 41.0 °F 76% 29.95 in 10.0 mi West 9.2 mph - N/A   Clear
11:55 PM 46.4 °F 42.9 °F 42.8 °F 87% 29.95 in 10.0 mi West 6.9 mph - N/A   Clear